TimeEDT,TemperatureF,Dew PointF,Humidity,Sea Level PressureIn,VisibilityMPH,Wind Direction,Wind SpeedMPH,Gust SpeedMPH,PrecipitationIn,Events,Conditions,WindDirDegrees,DateUTC
1:53 AM,79.0,75.9,90,30.01,10.0,SSE,4.6,-,N/A,,Clear,150,2013-08-16 05:53:00
2:53 AM,79.0,75.9,90,29.99,10.0,SSE,4.6,-,N/A,,Clear,150,2013-08-16 06:53:00
3:53 AM,82.9,73.9,74,29.99,10.0,SSW,10.4,-,N/A,,Partly Cloudy,210,2013-08-16 07:53:00
4:53 AM,84.0,73.0,69,29.99,10.0,SW,6.9,-,N/A,,Partly Cloudy,220,2013-08-16 08:53:00
5:53 AM,84.0,73.9,72,30.01,10.0,SW,18.4,26.5,N/A,,Mostly Cloudy,230,2013-08-16 09:53:00
6:07 AM,80.6,71.6,74,30.02,10.0,WSW,20.7,32.2,0.00,Rain,Rain,240,2013-08-16 10:07:00
6:53 AM,81.0,72.0,74,30.01,10.0,WSW,12.7,20.7,0.00,,Overcast,250,2013-08-16 10:53:00
7:53 AM,82.0,73.0,74,30.01,10.0,South,5.8,-,N/A,,Overcast,180,2013-08-16 11:53:00
8:53 AM,81.0,73.9,79,30.02,10.0,Calm,Calm,-,N/A,,Partly Cloudy,0,2013-08-16 12:53:00
9:53 AM,82.9,75.0,77,30.03,10.0,SE,4.6,-,N/A,,Mostly Cloudy,140,2013-08-16 13:53:00
10:53 AM,84.9,75.0,72,30.04,10.0,Calm,Calm,-,N/A,,Partly Cloudy,0,2013-08-16 14:53:00
11:00 AM,87.8,75.2,66,30.04,10.0,Variable,5.8,-,N/A,,Mostly Cloudy,0,2013-08-16 15:00:00
11:08 AM,87.8,73.4,62,30.03,10.0,ENE,4.6,-,N/A,,Scattered Clouds,60,2013-08-16 15:08:00
11:45 AM,86.0,75.2,70,30.05,10.0,West,6.9,-,N/A,,Mostly Cloudy,260,2013-08-16 15:45:00
11:53 AM,86.0,75.0,70,30.04,10.0,SW,6.9,-,N/A,,Mostly Cloudy,230,2013-08-16 15:53:00
12:13 PM,87.8,73.4,62,30.03,10.0,Calm,Calm,-,N/A,,Scattered Clouds,0,2013-08-16 16:13:00
12:53 PM,89.1,75.0,63,30.02,10.0,SW,5.8,-,N/A,,Clear,220,2013-08-16 16:53:00
1:53 PM,90.0,75.0,61,30.01,10.0,WSW,8.1,-,N/A,,Partly Cloudy,240,2013-08-16 17:53:00
2:53 PM,88.0,73.9,63,29.99,10.0,WSW,4.6,-,N/A,,Clear,240,2013-08-16 18:53:00
3:53 PM,89.1,75.0,63,29.97,10.0,WSW,9.2,-,N/A,,Clear,240,2013-08-16 19:53:00
4:53 PM,89.1,75.0,63,29.96,10.0,SW,6.9,-,N/A,,Clear,230,2013-08-16 20:53:00
5:53 PM,89.1,75.9,65,29.96,10.0,SW,4.6,-,N/A,,Clear,230,2013-08-16 21:53:00
6:53 PM,87.1,75.9,69,29.98,10.0,SW,5.8,-,N/A,,Clear,230,2013-08-16 22:53:00
7:53 PM,86.0,75.9,72,29.99,10.0,WNW,4.6,-,N/A,,Clear,290,2013-08-16 23:53:00
8:53 PM,86.0,75.9,72,30.01,10.0,West,3.5,-,N/A,,Clear,260,2013-08-17 00:53:00
9:53 PM,86.0,73.9,67,30.03,10.0,West,4.6,-,N/A,,Scattered Clouds,260,2013-08-17 01:53:00
10:53 PM,84.9,75.0,72,30.04,10.0,Calm,Calm,-,N/A,,Scattered Clouds,0,2013-08-17 02:53:00
11:41 PM,84.2,75.2,74,30.03,10.0,Calm,Calm,-,N/A,Thunderstorm,Scattered Clouds,0,2013-08-17 03:41:00
11:53 PM,84.0,75.9,76,30.04,10.0,SSW,13.8,28.8,N/A,Thunderstorm,Thunderstorm,210,2013-08-17 03:53:00